This is the latest recevied weather packets stored in our database for station/object N6RDS. If no packets are shown the sender has not sent any weather packets the latest 10 day(s).
| Time | Temp. | Humidity | Pressure | Rain* | Wind** | Luminosity | Snow |
|---|---|---|---|---|---|---|---|
| 1777311165 | 12.22° C | 37% | 1021.2 hPa | 0 mm | - | 679 W/m² | - |
| 1777310864 | 12.22° C | 36% | 1021 hPa | 0 mm | - | 677 W/m² | - |
| 1777310561 | 10.56° C | 38% | 1021.1 hPa | 0 mm | - | 673 W/m² | - |
| 1777310257 | 11.67° C | 39% | 1021.1 hPa | 0 mm | - | 543 W/m² | - |
| 1777309955 | 11.11° C | 39% | 1021 hPa | 0 mm | - | 623 W/m² | - |
| 1777309653 | 11.11° C | 37% | 1021.1 hPa | 0 mm | - | 638 W/m² | - |
| 1777309349 | 11.11° C | 38% | 1021.1 hPa | 0 mm | - | 616 W/m² | - |
| 1777309048 | 10.56° C | 38% | 1021.1 hPa | 0 mm | - | 606 W/m² | - |
| 1777308745 | 11.11° C | 38% | 1020.8 hPa | 0 mm | - | 595 W/m² | - |
| 1777308440 | 11.67° C | 36% | 1021.2 hPa | 0 mm | - | 585 W/m² | - |
| 1777308136 | 11.11° C | 37% | 1021.1 hPa | 0 mm | - | 574 W/m² | - |
| 1777307832 | 9.44° C | 38% | 1021.1 hPa | 0 mm | - | 560 W/m² | - |
| 1777307530 | 9.44° C | 39% | 1021.1 hPa | 0 mm | - | 550 W/m² | - |
| 1777307226 | 8.89° C | 41% | 1021.1 hPa | 0 mm | - | 533 W/m² | - |
| 1777306924 | 9.44° C | 38% | 1021 hPa | 0 mm | - | 519 W/m² | - |
| 1777306621 | 10° C | 40% | 1021.1 hPa | 0 mm | - | 504 W/m² | - |
| 1777306316 | 10.56° C | 41% | 1021 hPa | 0 mm | - | 489 W/m² | - |
| 1777306011 | 9.44° C | 41% | 1021 hPa | 0 mm | - | 472 W/m² | - |
| 1777305709 | 10° C | 43% | 1020.8 hPa | 0 mm | - | 417 W/m² | - |
| 1777305404 | 9.44° C | 46% | 1020.7 hPa | 0 mm | - | 440 W/m² | - |
| 1777305099 | 8.89° C | 46% | 1021 hPa | 0 mm | - | 393 W/m² | - |
| 1777304793 | 8.89° C | 50% | 1020.8 hPa | 0 mm | - | 406 W/m² | - |
| 1777304492 | 8.89° C | 50% | 1020.8 hPa | 0 mm | - | 392 W/m² | - |
| 1777304189 | 10° C | 48% | 1020.8 hPa | 0 mm | - | 379 W/m² | - |
| 1777303886 | 8.89° C | 51% | 1020.8 hPa | 0 mm | - | 362 W/m² | - |
* Rain latest hour (hover to see other rain measurements)
** Current wind speed in m/s (hover to see current wind gust speed)